Regional Weather Roundup
Issued by NWS New Orleans/Baton Rouge, LA

Home | Current Version | Previous Version | Text Only | Print | Product List | Glossary On
Versions: 1 2 3 4 5 6 7 8 9 10 11 12 13 14 15 16 17 18 19 20 21 22 23 24 25 26 27 28 29 30 31 32 33 34 35 36 37 38 39 40 41 42 43 44 45 46 47 48 49 50
000
ASUS44 KLIX 280411
RWRLIX
NEW ORLEANS REGIONAL WEATHER ROUNDUP
NATIONAL WEATHER SERVICE NEW ORLEANS LA
1100 PM CDT FRI MAR 27 2015

NOTE: "FAIR" INDICATES FEW OR NO CLOUDS BELOW 12,000 FEET WITH NO
      SIGNIFICANT WEATHER AND/OR OBSTRUCTIONS TO VISIBILITY.
      SKY/WX - SKY CONDITION AND SIGNIFICANT WEATHER.
      TMP - AIR TEMPERATURE.     DP    - DEWPOINT TEMPERATURE.
      RH  - RELATIVE HUMIDITY.   PRES  - PRESSURE.
      HI  - HEAT INDEX.          WCI   - WIND CHILL INDEX.

*  THESE STATIONS ARE NOT NWS OR FAA STATIONS AND ARE NOT UNDER
   NWS QUALITY CONTROL.

LAZ038-040-048-061>063-065>067-069-280500-
SOUTHEAST LOUISIANA

CITY           SKY/WX    TMP DP  RH WIND       PRES   REMARKS
N.O. AUDUBON     N/A     61 N/A N/A MISG        N/A
N.O. INTL ARPT PTCLDY    60  40  47 NE17      30.13R
N.O. LAKEFRONT CLEAR     62  41  46 NE23      30.14R
SLIDELL        CLEAR     52  42  69 CALM      30.14R
BATON ROUGE    CLEAR     55  42  61 NE5       30.15R
BOOTHVILLE     CLEAR     59  49  69 N6        30.13R
BELLE CHASSE   PTCLDY    56  41  57 N7        30.13R
BOGALUSA*        N/A     52  38  58 N6        30.16R
GALLIANO*      CLEAR     61  55  78 W5        30.13R
NEW ROADS*       N/A     55  40  58 N3        30.16R
GONZALES*        N/A     58  41  54 N6        30.14R
HAMMOND*       CLEAR     54  37  54 CALM      30.16R
HOUMA*         CLEAR     57  54  89 SW5       30.12S
PORT FOURCHON* CLEAR     64  54  68 W15G21    30.16R

$$

MSZ070-080>082-280500-
SOUTHERN MISSISSIPPI

CITY           SKY/WX    TMP DP  RH WIND       PRES   REMARKS
MCCOMB         CLEAR     51  38  60 N3        30.15R
GULFPORT       CLEAR     54  35  48 N7        30.13R
BILOXI         CLEAR     55  36  49 N10       30.13R
PASCAGOULA     CLEAR     50  37  61 N6        30.13R

$$

COASTAL OBSERVATIONS
LAKE AND NEARSHORE STATIONS

STATION/POSITION TIME  TEMP    WIND        PRES    WAVE
                       AIR SEA DIR/SP/G            HT/PER
                 (UTC) (F)     (DEG/KT/KT) (MB)    (FT/S)
PASCAGOULA       0300   57     360/  8/ 11 1019.0
WAVELAND YACHT   0300   58 67   40/ 10/ 12 1019.7
GRAND ISLE       0300   64 69  290/ 15/ 18 1019.0
SOUTHWEST PASS   0300   60 52  330/ 12/ 13 1019.5
NEW CANAL        0300   64      30/ 18/ 20 1019.6
SHELL BEACH      0300   65 68   10/ 16/ 19 1019.1

OFFSHORE STATIONS

STATION/POSITION TIME  TEMP    WIND        PRES    WAVE
                       AIR SEA DIR/SP/G            HT/PER
                 (UTC) (F)     (DEG/KT/KT) (MB)    (FT/S)
64 S DAUPHIN ISL 0350   65 71   10/ 17/ 21 1019.6    4/ 5

$$




USA.gov is the U.S. government's official web portal to all federal, state and local government web resources and services.